Regional Weather Roundup
Issued by NWS

Home | Current Version | Previous Version | Graphics & Text | Print | Product List | Glossary Off
Versions: 1 2 3 4 5 6 7 8 9 10 11 12 13 14 15 16 17 18 19 20 21 22 23 24 25 26 27 28 29 30 31 32 33 34 35 36 37 38 39 40 41 42 43 44 45 46 47 48 49 50

000
ASUS43 KTOP 200759
RWRKS

WEATHER ROUNDUP FOR KANSAS
NATIONAL WEATHER SERVICE GOODLAND KS
300 AM CDT SAT SEP 20 2014

NOTE:  "FAIR" INDICATES FEW OR NO CLOUDS BELOW 12,000 FEET WITH NO
SIGNIFICANT WEATHER AND/OR OBSTRUCTIONS TO VISIBILITY.

KSZ001>006-013>018-027>032-041>047-200900-
NORTHWEST KANSAS

CITY           SKY/WX    TMP DP  RH WIND       PRES   REMARKS
GOODLAND       MOCLDY    67  61  81 S13       29.95F
HAYS           CLEAR     68  57  68 S13       29.94S
HILL CITY      CLEAR     70  59  68 W5        29.93S
RUSSELL        CLEAR     70  61  73 S18       29.91S
$$

KSZ061>065-074>080-084>089-200900-
SOUTHWEST KANSAS

CITY           SKY/WX    TMP DP  RH WIND       PRES   REMARKS
DODGE CITY     CLEAR     68  59  73 S12       30.00R
ELKHART          N/A     65  59  81 S9          N/A
GARDEN CITY    CLEAR     62  59  90 S7        29.98S
GREAT BEND     CLEAR     70  61  73 S14       29.96S
LIBERAL        CLEAR     64  57  77 S7        30.02S
$$

KSZ066>073-081>083-090>101-200900-
SOUTHEAST KANSAS

CITY           SKY/WX    TMP DP  RH WIND       PRES   REMARKS
CHANUTE        CLEAR     67  67 100 S7        29.97F FOG
HUTCHINSON     CLEAR     70  64  81 S8        29.97R
NEWTON         CLEAR     70  63  78 S12G17    29.99F
PARSONS        CLEAR     67  66  97 CALM      29.98F FOG
WICHITA INTL   PTCLDY    70  67  90 S9        29.97S
WICHITA JABRA  PTCLDY    70  68  93 S12       29.97S
WICHITA MCCONL PTCLDY    70  70 100 S10       29.98S
WINFIELD       CLEAR     70  69  97 S8        29.99S
$$

KSZ007>012-019>026-033>040-048>060-102>105-200900-
NORTHEAST KANSAS

CITY           SKY/WX    TMP DP  RH WIND       PRES   REMARKS
CONCORDIA      CLEAR     70  65  84 S20G26    29.90R
EMPORIA        PTCLDY    68  67  96 S13       29.95F FOG
LAWRENCE       PTCLDY    68  65  90 S8        29.93F FOG
MANHATTAN      CLEAR     71  68  90 SW13      29.91F
OLATHE IND     PTCLDY    66  65  96 S8        29.96S FOG
OLATHE EXE     PTCLDY    67  66  97 SW7       29.95S FOG
SALINA         CLEAR     71  65  81 S14       29.92F
TOPEKA BILLARD CLEAR     70  68  93 S10       29.92F FOG
TOPEKA FORBES  PTCLDY    68  66  93 S10       29.93F FOG
$$


USA.gov is the U.S. government's official web portal to all federal, state and local government web resources and services.